Flag for Netherlands Weather past 2 weeks in Rotterdam, Netherlands

Now
64 °F

Thunderstorms. More clouds than sun.


Feels Like: 64 °F
Forecast: 62 / 76 °F
Wind: 7 mph from North

Location: Rotterdam Zestienhoven Airport

Current Time: Jul 28, 2014 at 8:20:13 AM

Latest Report: Jul 28, 2014 at 7:55 AM


Visibility: N/A

Pressure: 29.89 "Hg

Humidity: 88%

Dew point: 61 °F

Location of RotterdamLocation

Historic Weather in Rotterdam — Graph

°F

Rotterdam temperature yesterday

Maximum temperature yesterday: 79 °F (at 3:25 PM)
Minimum temperature yesterday: 61 °F (at 2:55 AM)
Average temperature yesterday: 68 °F

Past Weeks' High & Low Weather Summary

 TemperatureHumidityPressure
High95 °F (Jul 19, 3:25 PM)100% (Jul 14, 3:25 AM)30.18 "Hg (Jul 14, 3:25 AM)
Low55 °F (Jul 16, 2:55 AM)26% (Jul 19, 3:25 PM)29.71 "Hg (Jul 13, 2:55 PM)
Average70 °F76%29.97 "Hg
* Reported Jul 13 6:25 AM — Jul 28 6:55 AM, Rotterdam, Weather by CustomWeather, © 2014

Note: Actual official high and low records may vary slightly from our data, if they occured in-between our weather recording intervals... More about our weather records

Advertising

Rotterdam weather history for previous 24 hours

 ConditionsComfort  
Time TempWeatherWind HumidityBarometerVisibility
6:55 AM
Jul 28
64 °FMostly cloudy.6 mph94%29.92 "HgN/A
6:25 AM64 °FClear.5 mph94%29.92 "HgN/A
5:55 AM64 °FFog.7 mph94%29.92 "Hg3 mi
5:25 AM64 °FFog.5 mph94%29.92 "Hg3 mi
4:55 AM64 °FFog.6 mph94%29.92 "Hg3 mi
4:25 AM64 °FFog.6 mph94%29.92 "Hg3 mi
3:55 AM64 °FPassing clouds.6 mph94%29.95 "Hg4 mi
3:25 AM66 °FLight rain. Passing clouds.6 mph88%29.95 "Hg5 mi
2:55 AM66 °FPartly cloudy.5 mph88%29.95 "Hg4 mi
2:25 AM66 °FMostly cloudy.6 mph88%29.95 "Hg5 mi
1:55 AM64 °FMostly cloudy.7 mph94%29.98 "Hg5 mi
1:25 AM66 °FPassing clouds.5 mph88%29.98 "HgN/A
12:55 AM66 °FPassing clouds.2 mph88%29.98 "HgN/A
12:25 AM64 °FPassing clouds.3 mph88%29.98 "HgN/A
11:55 PM
Jul 27
66 °FPassing clouds.5 mph83%29.98 "HgN/A
11:25 PM66 °FOvercast.5 mph83%29.98 "HgN/A
10:55 PM66 °FOvercast.5 mph83%30.01 "HgN/A
10:25 PM66 °FPartly sunny.6 mph83%30.01 "HgN/A
9:55 PM66 °FPartly sunny.7 mph83%29.98 "HgN/A
9:25 PM66 °FOvercast.7 mph83%29.98 "HgN/A
8:55 PM68 °FPassing clouds.9 mph83%29.98 "HgN/A
8:25 PM68 °FScattered clouds.8 mph83%29.98 "HgN/A
7:55 PM68 °FClear.9 mph83%29.98 "HgN/A
7:25 PM70 °FClear.9 mph78%29.98 "HgN/A
6:55 PM70 °FClear.9 mph78%29.98 "HgN/A
6:25 PM72 °FClear.8 mph73%29.98 "HgN/A
5:55 PM75 °FPassing clouds.7 mph65%29.98 "HgN/A
5:25 PM75 °FMild.6 mph65%29.98 "HgN/A
4:55 PM75 °FMild.10 mph69%29.98 "HgN/A
4:25 PM77 °FClear.12 mph69%29.98 "HgN/A
3:55 PM77 °FPassing clouds.6 mph57%29.98 "HgN/A
3:25 PM79 °FWarm.5 mph58%29.98 "HgN/A
2:55 PM77 °FWarm.3 mph61%29.98 "HgN/A
2:25 PM77 °FClear.5 mph57%30.01 "HgN/A
1:55 PM75 °FClear.3 mph61%30.01 "HgN/A
1:25 PM75 °FClear.5 mph61%30.01 "HgN/A
12:55 PM73 °FPassing clouds.6 mph69%30.01 "HgN/A
12:25 PM72 °FScattered clouds.7 mph73%30.01 "HgN/A
11:55 AM72 °FScattered clouds.6 mph78%30.01 "HgN/A
11:25 AM72 °FBroken clouds.7 mph73%30.01 "HgN/A
10:55 AM70 °FScattered clouds.6 mph78%30.01 "HgN/A
10:25 AM70 °FOvercast.6 mph78%30.01 "HgN/A
9:55 AM68 °FMostly cloudy.2 mph83%30.01 "Hg6 mi
9:25 AM66 °FMostly cloudy.3 mph88%30.01 "Hg4 mi
8:55 AM64 °FFog.5 mph94%30.01 "Hg3 mi
8:25 AM64 °FFog.5 mph94%29.98 "Hg2 mi
Weather by CustomWeather, © 2014

See weather overviewHow to use our weather pages